| |
Missouri Department of Transportation

Social Media Facebook Twitter Flickr Instagram YouTube RSS

Current AWOS Information

 
AWOS Home - General Info for all Airports
Current AWOS for all Airports - Current METAR for all Airports
Glossary - Disclaimer - Other Links


MARSHALL--MARSHALL MEMORIAL MUNICIPAL--KMHL
 
Recent AWOS History
 
04/19/15     10:02 PM CDT      03:02 GMT
Air Temperature 62°F (17°C ) 1st Cloud Layer Clear
Dew Point 61°F (16°C) 2nd Cloud Layer  
Barometric Pressure 29.86 in Hg. 3rd Cloud Layer  
Wind Speed 4 mph (4 knots) Density Altitude  
Peak Wind Gusts   Variable Wind Directions  
Wind Direction Quadrant(100°) Variable Visibility  
Visibility 7 statute miles  

Thunderstorm and Precipitation Identification: 
Thunderstorm Remarks: 

Current METAR Record: METAR KMHL 190305Z AUTO 10004KT 7SM CLR 17/16 A2986 RMK AO2

 

 

 

About Us
How Do I...
Contact Us
Missouri Department of Transportation
Central Office
105 W. Capitol Avenue
Jefferson City, MO 65102
1-888-ASK-MODOT (275-6636)
1-866-831-6277 (Motor Carrier Services)
Drivers License Offices
horz_bar
| | |
Missouri State Government
© 2013 Missouri Department of Transportation. All Rights Reserved.   Privacy Policy.
 
 
 
 
RSS FeedYoutubeBlogFlickrTwitter Facebook